Latrobe, PA

12:04 AM EDT on September 20, 2019 (GMT -0400)
Arnold Palmer Regional

Weather History for KLBE - May, 2019

Change the Weather History Date:

Thursday, May 23, 2019

  Actual Average Record
Temperature  
Mean Temperature 69 °F -  
Max Temperature 78 °F 70 °F 82 °F (2004)
Min Temperature 60 °F 49 °F 32 °F (2015)
Cooling Degree Days 4    
Growing Degree Days 19 (Base 50)    
Moisture  
Dew Point 63 °F    
Average Humidity 80    
Maximum Humidity 100    
Minimum Humidity 61    
Precipitation  
Precipitation 0.00 in - - ()
Sea Level Pressure  
Sea Level Pressure 30.06 in    
Wind  
Wind Speed 5 mph (WSW)    
Max Wind Speed 21 mph    
Max Gust Speed 30 mph    
Visibility 10 miles    
Events Rain , Thunderstorm    
Averages and records for this station are not official NWS values.
T = Trace of Precipitation, MM = Missing Value Source: NWS Daily Summary

Daily Weather History Graph

Daily Weather History Graph

Search for Another Location

Airport or City:

Astronomy

May. 23, 2019 Rise Set
Actual Time 5:55 AM EDT 8:33 PM EDT
Civil Twilight 5:23 AM EDT 9:05 PM EDT
Nautical Twilight 4:44 AM EDT 9:45 PM EDT
Astronomical Twilight 3:59 AM EDT 10:29 PM EDT
Moon 12:15 AM EDT (5/23) 9:57 AM EDT (5/23)
Length of Visible Light 15h 41m
Length of Day
14h 38m
Waning Gibbous, 77% of the Moon is Illuminated
May 23
Waning Gibbous
May 26
Last Quarter
Jun 3
New
Jun 10
First Quarter
Jun 17
Full

Hourly Weather History & Observations

Time (EDT) Temp. Dew Point Humidity Pressure Visibility Wind Dir Wind Speed Gust Speed Precip Events Conditions
12:15 AM 68.0 °F 55.4 °F 64% 30.10 in 10.0 mi Calm Calm - N/A   Clear
12:35 AM 64.4 °F 57.2 °F 77% 30.09 in 10.0 mi Calm Calm - N/A   Clear
12:55 AM 64.4 °F 57.2 °F 77% 30.09 in 10.0 mi Calm Calm - N/A   Partly Cloudy
1:15 AM 64.4 °F 57.2 °F 77% 30.09 in 10.0 mi Calm Calm - N/A   Partly Cloudy
1:35 AM 64.4 °F 57.2 °F 77% 30.09 in 10.0 mi Calm Calm - N/A   Clear
1:55 AM 64.4 °F 57.2 °F 77% 30.10 in 10.0 mi North 6.9 mph - N/A   Scattered Clouds
2:15 AM 64.4 °F 57.2 °F 77% 30.11 in 10.0 mi North 4.6 mph - N/A   Mostly Cloudy
2:35 AM 64.4 °F 57.2 °F 77% 30.11 in 10.0 mi Calm Calm - N/A   Mostly Cloudy
2:55 AM 64.4 °F 57.2 °F 77% 30.10 in 10.0 mi North 4.6 mph - N/A   Mostly Cloudy
3:15 AM 64.4 °F 57.2 °F 77% 30.11 in 10.0 mi Calm Calm - N/A   Mostly Cloudy
3:35 AM 64.4 °F 57.2 °F 77% 30.10 in 10.0 mi Calm Calm - N/A   Mostly Cloudy
3:55 AM 64.4 °F 57.2 °F 77% 30.10 in 10.0 mi Calm Calm - N/A   Mostly Cloudy
4:15 AM 62.6 °F 57.2 °F 82% 30.09 in 10.0 mi Calm Calm - N/A   Partly Cloudy
4:35 AM 60.8 °F 59.0 °F 94% 30.09 in 10.0 mi Calm Calm - N/A   Scattered Clouds
4:55 AM 60.8 °F 57.2 °F 88% 30.09 in 10.0 mi Calm Calm - N/A   Partly Cloudy
5:15 AM 60.8 °F 59.0 °F 94% 30.09 in 10.0 mi Calm Calm - N/A   Mostly Cloudy
5:35 AM 62.6 °F 59.0 °F 88% 30.09 in 10.0 mi Calm Calm - N/A   Mostly Cloudy
5:55 AM 62.6 °F 60.8 °F 94% 30.09 in 10.0 mi Calm Calm - N/A   Overcast
6:51 AM 68.0 °F 62.6 °F 83% 30.11 in 10.0 mi SSW 12.7 mph - N/A   Mostly Cloudy
9:51 AM 73.4 °F 62.6 °F 69% 30.11 in 10.0 mi SSW 16.1 mph 23.0 mph N/A   Mostly Cloudy
10:50 AM 77.0 °F 64.4 °F 65% 30.09 in 10.0 mi SW 17.3 mph 28.8 mph N/A   Mostly Cloudy
11:20 AM 75.2 °F 66.2 °F 73% 30.11 in 3.0 mi SW 17.3 mph 28.8 mph N/A Rain Light Rain
11:50 AM 71.6 °F 69.8 °F 94% 30.11 in 8.0 mi SW 17.3 mph 28.8 mph N/A   Mostly Cloudy
12:50 PM 75.2 °F 69.8 °F 83% 30.09 in 10.0 mi North - - N/A   Mostly Cloudy
1:50 PM 75.2 °F 66.2 °F 73% 30.06 in 10.0 mi SW 17.3 mph - N/A   Mostly Cloudy
2:50 PM 75.2 °F 66.2 °F 73% 30.03 in 10.0 mi SSW 17.3 mph - N/A   Mostly Cloudy
3:50 PM 78.8 °F 64.4 °F 61% 30.01 in 10.0 mi SW 17.3 mph 28.8 mph N/A   Scattered Clouds
4:53 PM 77.0 °F 64.4 °F 65% 30.00 in 10.0 mi WSW 17.3 mph - N/A   Mostly Cloudy
5:53 PM 78.8 °F 66.2 °F 65% 29.99 in 10.0 mi WSW 17.3 mph 25.3 mph N/A   Partly Cloudy
6:53 PM 78.8 °F 66.2 °F 65% 29.97 in 10.0 mi WSW 12.7 mph 23.0 mph N/A   Mostly Cloudy
7:53 PM 77.0 °F 66.2 °F 69% 29.97 in 10.0 mi SW 20.7 mph 26.5 mph N/A   Mostly Cloudy
8:53 PM 73.4 °F 66.2 °F 78% 29.97 in 10.0 mi SW 18.4 mph 26.5 mph N/A   Partly Cloudy
9:53 PM 73.4 °F 68.0 °F 83% 29.99 in 10.0 mi SW 17.3 mph - N/A   Clear
10:15 PM 73.4 °F 68.0 °F 83% 30.00 in 10.0 mi SSW 9.2 mph - N/A   Clear
10:35 PM 71.6 °F 68.0 °F 88% 30.00 in 10.0 mi SSW 10.4 mph - N/A   Clear
10:55 PM 71.6 °F 68.0 °F 88% 29.99 in 10.0 mi SSW 9.2 mph - N/A   Clear
11:15 PM 71.6 °F 69.8 °F 94% 30.02 in 3.0 mi NW 17.3 mph 29.9 mph N/A Rain , Thunderstorm Rain
11:35 PM 69.8 °F 69.8 °F 100% 30.01 in 10.0 mi WSW 8.1 mph - N/A   Mostly Cloudy
11:55 PM 69.8 °F 69.8 °F 100% 30.01 in 10.0 mi WSW 8.1 mph - N/A   Partly Cloudy